Location: Julian California
(33.0790°N, 116.6010°W)
Time: 09:26:50
(UTC-07:00)

ASTRO E2 - Pass Details

Date: 14 June 2018
Orbit: 513 x 519 km, 31.4° (Epoch: 20 June)

Event Time Altitude Azimuth Distance (km) Brightness Sun altitude
Rises 22:02:24 0° 273° (W) 2,610 6.9 -21.3°
Reaches altitude 10° 22:04:45 10° 264° (W) 1,724 5.8 -21.7°
Enters shadow 22:07:27 31° 229° (SW) 918 3.9 -22.0°
